METEOR 2-12 DEB

Satellite information

Favourite Embed

Satellite Type and Status

DEBRISIN ORBIT

Key statistics

Satellite METEOR 2-12 DEB at a glance.

Uptime

14821

Days in orbit

Revolutions

≈ 14.0

Per day

Orbit

LEO

Low Earth Orbit

Inclination

82.5

Latest

Satellite identification and parameters

Extended collection of information and parameters for METEOR 2-12 DEB.

Object identification

Identified? True

Debris? True

Object name: METEOR 2-12 DEB

International designator: 1985-013D

Object number (NORAD): 45518

Object ID (CCSDS): 45518

Country: COMMONWEALTH OF INDEPENDENT STATES (CIS)

Current information (Y/N): Y

RCS size: SMALL

Orbital parameters

Period: 102.611 minutes

Inclination: 82.5288 deg

SMA: 7260.303 km

Apoapsis: 896.05 km

Periapsis: 868.287 km

RAAN: 145.3037 deg

Eccentricy: 0.00191196

Argument of periapsis: 183.1778 deg

Mean anomaly: 176.9274 deg

Mean motion: 14.03364966 rev/day

Mean motion (dot): 0.00004856 rev/day2

B* drag term: 0.0030938827 1/REarth

Two-line elements (TLE)

Creation date: Sept. 4, 2025, 4:29 a.m.

Reference frame: TEME

Reference center: EARTH

Epoch: Sept. 3, 2025, 11:17 a.m. UTC

TLE line 0: 0 METEOR 2-12 DEB

TLE line 1: 1 45518U 85013D 25246.47040412 .00004856 00000-0 30939-2 0 9990

TLE line 2: 2 45518 82.5288 145.3037 0019120 183.1778 176.9274 14.03364966 80667

Live tracking on map

Real-time ground track for satellite METEOR 2-12 DEB.

In-orbit conjunctions

A list of the most updated potential collisions computed for object METEOR 2-12 DEB.

Target Orbit TCA Probability of collision Miss distance Type
SL-3 R/B LEO 2025-03-31 21:00:39 0.0002201911 422.0 (m) ROCKET BODY

Associated space launch

Film-return reconnaissance satellite

METEOR 2-12 DEB was lifted into orbit during the mission ‘Soyuz U | Zenit-8 11’, on board a Soyuz U space rocket.

The launch took place on Feb. 6, 1985, 11 a.m. from 16/2.

For more information about the launch, click the button.

Launch to space Soyuz U | Zenit-8 11
Soyuz U | Zenit-8 11

Agency: N/A

Status: Launch Successful

Launch date: Feb. 6, 1985, 11 a.m. UTC

Rocket: Soyuz U

Launch pad: 16/2

Location: Plesetsk Cosmodrome, Russian Federation

...

Latest news about this satellite

There are no fresh news available about this satellite. Check back as we update our databases every day.


Newsletter sign-up

Weekly statistics, charts and insights to help you stay on top of the space industry.